[Iaude] MPEC F127: 2019 FY [a=2.15,e=0.52,i=8.4,H=22.9]

mpec at mpcdb1.cfa.harvard.edu mpec at mpcdb1.cfa.harvard.edu
Fri Mar 29 11:55:19 EDT 2019


M.P.E.C. 2019-F127                               Issued 2019 Mar. 29, 15:50 UT
 
     The Minor Planet Electronic Circulars contain information on unusual
         minor planets and routine data on comets.  They are published
    on behalf of Division F of the International Astronomical Union by the
          Minor Planet Center, Smithsonian Astrophysical Observatory,
                          Cambridge, MA 02138, U.S.A.

             Prepared using the Tamkin Foundation Computer Network

                              MPC at CFA.HARVARD.EDU
            URL https://www.minorplanetcenter.net/    ISSN 1523-6714


                                    2019 FY
 
Observations:
     K19F00Y* C2019 03 26.64563 12 01 00.16 -12 35 48.7          20.6 RqEF127D29
     K19F00Y  C2019 03 26.65977 12 01 01.11 -12 35 32.4          20.1 RqEF127D29
     K19F00Y  C2019 03 26.67392 12 01 02.11 -12 35 15.2          20.0 RqEF127D29
     K19F00Y IC2019 03 27.00767012 01 31.27 -12 28 39.9          19.5 GVEF127L01
     K19F00Y IC2019 03 27.01315512 01 31.69 -12 28 31.7          20.6 GVEF127L01
     K19F00Y KC2019 03 27.01868812 01 32.12 -12 28 25.1          19.2 GVEF127L01
     K19F00Y KC2019 03 27.02140712 01 32.31 -12 28 22.3          19.5 GVEF127L01
     K19F00Y  C2019 03 27.19371312 01 48.75 -12 23 57.1          20.0 RtEF127W87
     K19F00Y  C2019 03 27.19540612 01 48.87 -12 23 55.0          19.9 RtEF127W87
     K19F00Y  C2019 03 27.19710212 01 49.00 -12 23 52.8          19.7 RtEF127W87
     K19F00Y  C2019 03 27.19879512 01 49.13 -12 23 50.7          19.6 RtEF127W87
     K19F00Y KC2019 03 27.28183312 01 56.15 -12 22 56.6          20.3 VuEF127H21
     K19F00Y KC2019 03 27.28485912 01 56.40 -12 22 53.2          20.5 VuEF127H21
     K19F00Y KC2019 03 27.28990312 01 56.77 -12 22 47.1          20.6 VuEF127H21
     K19F00Y KC2019 03 27.88656 12 02 54.53 -12 10 03.1                VEF127587
     K19F00Y KC2019 03 27.90894 12 02 56.36 -12 09 33.6                VEF127587
     K19F00Y KC2019 03 27.91882 12 02 57.18 -12 09 20.9                VEF127587
     K19F00Y KC2019 03 27.92022612 02 57.31 -12 09 18.9          20.2 GVEF127587
     K19F00Y KC2019 03 27.94146 12 02 58.65 -12 08 51.9          19.7 RoEF127K88
     K19F00Y KC2019 03 27.94631 12 02 59.04 -12 08 45.1          19.4 RoEF127K88
     K19F00Y KC2019 03 27.95050612 03 00.25 -12 08 38.3          19.8 VqEF127I93
     K19F00Y KC2019 03 27.95115 12 02 59.44 -12 08 39.0          19.6 RoEF127K88
     K19F00Y KC2019 03 27.96141312 03 00.70 -12 08 23.6          19.9 GVEF127C95
     K19F00Y KC2019 03 27.96390412 03 00.70 -12 08 20.4          20.3 G EF127L01
     K19F00Y KC2019 03 27.96663212 03 00.92 -12 08 16.9          20.5 G EF127L01
     K19F00Y KC2019 03 27.96939712 03 01.75 -12 08 13.2          19.9 VqEF127I93
     K19F00Y KC2019 03 27.97107312 03 01.60 -12 08 10.0          19.7 GVEF127C95
     K19F00Y KC2019 03 27.97841912 03 02.44 -12 08 01.4          20.1 VqEF127I93
     K19F00Y KC2019 03 27.98075112 03 02.40 -12 07 58.0          19.8 GVEF127C95
     K19F00Y pC2019 03 27.98101112 03 02.09 -12 07 57.6          20.7 G EF127L01
     K19F00Y KC2019 03 27.98528812 03 02.43 -12 07 52.3          20.5 G EF127L01
     K19F00Y KC2019 03 27.99054312 03 03.20 -12 07 42.9          19.3 GVEF127C95
     K19F00Y KC2019 03 28.30925 12 03 33.70 -12 00 31.2          19.1 RqEF127H36
     K19F00Y KC2019 03 28.32115 12 03 34.67 -12 00 15.3          19.9 RqEF127H36
     K19F00Y KC2019 03 28.33380 12 03 35.79 -11 59 58.0          19.4 RqEF127H36
     K19F00Y KC2019 03 28.35042 12 03 37.74 -11 59 31.9          20.0 RoEF127291
     K19F00Y KC2019 03 28.35341 12 03 37.98 -11 59 27.7          20.0 RoEF127291
     K19F00Y KC2019 03 28.35639 12 03 38.23 -11 59 23.5          20.1 RoEF127291
     K19F00Y KC2019 03 28.97688712 04 42.15 -11 44 59.0          19.9 GVEF127J95
     K19F00Y KC2019 03 28.98131312 04 42.63 -11 44 53.1          20.2 GVEF127J95
     K19F00Y KC2019 03 28.98583712 04 43.00 -11 44 46.8          20.0 GVEF127J95
     K19F00Y  C2019 03 29.23511 12 05 09.97 -11 38 31.9          20.4 GVEF127I52
     K19F00Y  C2019 03 29.23733 12 05 10.22 -11 38 29.1          19.6 GVEF127I52
     K19F00Y  C2019 03 29.23900 12 05 10.34 -11 38 26.8          20.2 GVEF127I52
     K19F00Y  C2019 03 29.24121 12 05 10.61 -11 38 23.8          19.9 GVEF127I52
     K19F00Y KC2019 03 29.29266 12 05 14.80 -11 37 05.9                oEF127711
     K19F00Y KC2019 03 29.29546 12 05 15.05 -11 37 01.7                oEF127711
     K19F00Y KC2019 03 29.29793 12 05 15.27 -11 36 57.9                oEF127711
 
Observer details:
291 LPL/Spacewatch II.  Observer R. A. Mastaler.  1.8-m f/2.7 reflector + CCD.
587 Sormano.  Observers A. Fumagalli, F. Manca, A. Testa.  Measurer
    F. Manca.  0.5-m f/6.8 reflector + CCD.
711 McDonald Observatory, Fort Davis.  Observer J. G. Ries.  2.1-m reflector
    + CCD + focal reducer.
C95 SATINO Remote Observatory, Haute Provence.  Observer J. Jahn.  0.60-m
    f/3.2 Newtonian reflector + CCD.
D29 Purple Mountain Observatory, XuYi Station.  Observers H. B. Zhao, B. Li,
    G. Zhaori, R. Q. Hong, L. F. Hu.  Measurers H. B. Zhao, B. Li, H. Lu,
    G. Zhaori.  1.04-m f/1.8 Schmidt + CCD.
H21 Astronomical Research Observatory, Westfield.  Observer R. Holmes.
    Measurers S. Foglia, L. Buzzi, T. Linder, R. Holmes.  0.76-m f/3.0
    astrograph + CCD.
H36 Sandlot Observatory, Scranton.  Observer G. Hug.  0.56-m reflector + CCD.
I52 Steward Observatory, Mt. Lemmon Station.  Observer H. Groeller.
    Measurers B. M. Africano, E. J. Christensen, G. A. Farneth, D. C. Fuls,
    A. R. Gibbs, A. D. Grauer, H. Groeller, R. A. Kowalski, S. M. Larson,
    G. J. Leonard, T. A. Pruyne, R. L. Seaman, F. C. Shelly.  1.0-m reflector
    + CCD.
I93 St Pardon de Conques.  Observer F. Losse.  0.40-m f/3.7 reflector + CCD.
J95 Great Shefford.  Observer P. Birtwhistle.  0.41-m f/6.3
    Schmidt-Cassegrain + CCD.
K88 GINOP-KHK, Piszkesteto.  Observer K. Sarneczky.  0.60-m Schmidt + CCD.
L01 Visnjan Observatory, Tican.  Observers K. Korlevic, J. Mates,
    F. Valentine.  Measurer K. Korlevic.  1.0-m f/2.9 reflector + CCD.
W87 Cerro Tololo-LCO C.  Observers J. D. Armstrong, J. O. Teagarden.  1.0-m
    f/8 Ritchey-Chretien + CCD.
 
Orbital elements:
2019 FY                                                  Earth MOID = 0.0655 AU
Epoch 2019 Apr. 27.0 TT = JDT 2458600.5                 MPC
M 354.11205              (2000.0)            P               Q
n   0.31179223     Peri.   40.19453     -0.52670255     +0.84883807
a   2.1539016      Node   198.16679     -0.81248743     -0.51840128
e   0.5236533      Incl.    8.36707     -0.24989719     -0.10360523
P   3.16           H   22.9           G   0.15           U   8
Residuals in seconds of arc
190326 D29  0.2+  0.1+    190327 587  0.2-  0.5-    190328 H36  0.3+  0.8+
190326 D29  0.6-  0.3-    190327 587  0.0   0.3-    190328 H36  0.1-  0.2+
190326 D29  0.8-  0.1+    190327 K88  0.1+  0.3-    190328 H36  0.6+  0.1-
190327 L01  0.3+  1.1-    190327 K88  0.1-  0.0     190328 291  0.3+  0.1-
190327 L01  0.3+  0.3+    190327 I93  1.1+  0.3-    190328 291  0.2+  0.1-
190327 L01  0.3+  0.1+    190327 K88  0.1-  0.3-    190328 291  0.3+  0.0
190327 L01  0.0   0.5-    190327 C95  2.0-  0.2-    190328 J95  0.6-  0.5+
190327 W87  0.6+  0.3+    190327 L01  0.3-  0.3+    190328 J95  0.5+  0.0
190327 W87  0.5+  0.3+    190327 L01  0.3-  0.2+    190328 J95  0.1-  0.2-
190327 W87  0.6+  0.4+    190327 I93  0.4+  0.2-    190329 I52  0.8-  0.0
190327 W87  0.7+  0.4+    190327 C95  0.4-  0.6+    190329 I52  0.1-  0.4-
190327 H21  0.2-  0.4+    190327 I93  0.3-  0.3-    190329 I52  0.5-  0.6-
190327 H21  0.1+  0.0     190327 C95  0.2-  0.3-    190329 I52  0.6+  0.8-
190327 H21  0.2-  0.3-    190327 L01  0.5-  0.3+    190329 711  0.4+  0.2+
190327 587  0.1+  0.6-    190327 L01  0.7-  0.2-    190329 711  0.5+  0.2+
190327 587  0.3-  0.2-    190327 C95  0.2-  1.8+    190329 711  0.5+  0.3+

Ephemeris:
2019 FY                  a,e,i = 2.15, 0.52, 8                   q = 1.0260
Date    TT    R. A. (2000) Decl.     Delta      r     Elong.  Phase     V
2019 02 27    11 39 38.5 -14 53 28   0.4117  1.3673   152.0    19.9    22.6
...
2019 03 14    11 48 18.7 -14 58 19   0.2837  1.2667   161.8    14.2    21.5
...
2019 03 22    11 55 10.7 -13 50 20   0.2257  1.2166   166.3    11.1    20.8
...
2019 03 28    12 03 04.3 -12 06 54   0.1864  1.1815   169.1     9.2    20.2
2019 03 29    12 04 44.3 -11 43 44   0.1802  1.1758   169.5     8.9    20.1
2019 03 30    12 06 31.9 -11 18 31   0.1741  1.1703   169.9     8.6    20.0
...
2019 04 05    12 20 44.1 -07 54 49   0.1396  1.1385   171.5     7.5    19.4
...
2019 04 13    12 54 51.9 +00 10 49   0.1003  1.1010   168.6    10.4    18.8
...
2019 04 28    15 56 32.4 +31 50 55   0.06601 1.0491   128.7    48.5    18.9

A. U. Tomatic                (C) Copyright 2019 MPC           M.P.E.C. 2019-F127



More information about the Iaude mailing list